Location: Moncton
(46.0878°N, 64.7782°W)
Time: 07:20:52
(UTC-03:00)

ISS - Visible Passes

Search period start: 02 July 2020 00:00
Search period end: 12 July 2020 00:00
Orbit: 417 x 420 km, 51.6° (Epoch: 02 July)

Date Brightness Start Highest point End Pass type
(mag) Time Alt. Az. Time Alt. Az. Time Alt. Az.
02 Jul -1.8 03:01:23 18° SE 03:01:23 18° SE 03:03:33 10° E visible
02 Jul -3.7 04:34:18 10° WSW 04:37:37 80° NNW 04:41:00 10° ENE visible
03 Jul -3.8 03:48:03 26° SW 03:49:44 69° SSE 03:53:06 10° ENE visible
04 Jul -3.3 03:01:46 43° SSE 03:01:55 43° SE 03:05:08 10° ENE visible
04 Jul -2.7 04:35:29 10° W 04:38:43 44° NNW 04:41:58 10° ENE visible
05 Jul -1.9 02:15:26 21° ESE 02:15:26 21° ESE 02:17:02 10° E visible
05 Jul -3.3 03:48:20 17° W 03:50:45 58° NNW 03:54:04 10° ENE visible
06 Jul -3.8 03:01:57 47° WSW 03:02:48 82° NNW 03:06:10 10° ENE visible
06 Jul -2.1 04:36:49 10° WNW 04:39:54 32° N 04:42:58 10° ENE visible
07 Jul -3.3 02:15:30 52° E 02:15:30 52° E 02:18:14 10° ENE visible
07 Jul -2.3 03:48:42 10° W 03:51:51 36° NNW 03:55:00 10° ENE visible
08 Jul -1.7 01:29:00 20° E 01:29:00 20° E 01:30:13 10° ENE visible
08 Jul -2.7 03:01:54 21° W 03:03:49 44° NNW 03:07:04 10° ENE visible
08 Jul -1.8 04:38:03 10° WNW 04:41:05 30° N 04:44:07 10° ENE visible
09 Jul -3.3 02:15:20 52° WNW 02:15:47 59° NNW 02:19:08 10° ENE visible
09 Jul -1.9 03:49:57 10° WNW 03:53:00 30° N 03:56:02 10° ENE visible
10 Jul -3.0 01:28:40 47° NE 01:28:40 47° NE 01:31:11 10° ENE visible
10 Jul -2.0 03:01:49 10° WNW 03:04:54 32° N 03:07:59 10° ENE visible
10 Jul -2.1 04:39:03 10° WNW 04:42:12 37° NNE 04:45:22 10° E visible
11 Jul -1.9 00:41:52 22° ENE 00:41:52 22° ENE 00:43:12 10° ENE visible
11 Jul -2.3 02:14:44 18° WNW 02:16:48 37° NNW 02:19:58 10° ENE visible
11 Jul -1.9 03:51:02 10° WNW 03:54:07 32° N 03:57:12 10° ENE visible
11 Jul -1.2 23:54:51 12° ENE 23:54:51 12° ENE 23:55:08 10° ENE visible
